Regional Weather Roundup
Issued by NWS Mobile, AL

Home | Current Version | Previous Version | Text Only | Print | Product List | Glossary On
Versions: 1 2 3 4 5 6 7 8 9 10 11 12 13 14 15 16 17 18 19 20 21 22 23 24 25 26 27 28 29 30 31 32 33 34 35 36 37 38 39 40 41 42 43 44 45 46 47 48 49 50
000
ASUS44 KMOB 032312
RWRMOB
REGIONAL WEATHER ROUNDUP
NATIONAL WEATHER SERVICE MOBILE AL
500 PM CST SAT DEC 03 2016

NOTE: "FAIR" INDICATES FEW OR NO CLOUDS BELOW 12,000 FEET WITH NO
      SIGNIFICANT WEATHER AND/OR OBSTRUCTIONS TO VISIBILITY.

  * THESE STATIONS ARE PART OF THE UNIVERSITY OF SOUTH ALABAMA
    MESONET AND ARE NOT UNDER NWS OR FAA QUALITY CONTROL.

ALZ061>064-040000-
COASTAL ALABAMA

CITY           SKY/WX    TMP DP  RH WIND       PRES   REMARKS
MOBILE REG APT CLOUDY    60  37  42 NE16      30.11S
BROOKLEY FIELD CLOUDY    64  40  41 N10       30.13R
USA CAMPUS*      N/A     59  39  47 NE3       30.11F
DOG RIVER*       N/A     63  43  48 E5        30.90R


CITY           SKY/WX    TMP DP  RH WIND       PRES   REMARKS
GULF SHORES    CLOUDY    63  42  47 E7G16     30.10R

$$

ALZ051>060-040000-
INTERIOR SOUTHWEST AND SOUTH CENTRAL ALABAMA

CITY           SKY/WX    TMP DP  RH WIND       PRES   REMARKS
GREENVILLE     CLOUDY    54  35  48 NE13      30.17S
EVERGREEN      CLOUDY    55  38  52 NE9       30.16S
ATMORE*          N/A     57  39  51 N7        30.15R
ANDALUSIA/OPP  CLOUDY    61  36  39 NE5       30.16R
ANDALUSIA*       N/A     57  37  47 NE7       30.15R
FLORALA APT    MOCLDY    58  35  42 NE9       30.16S
FLORALA*         N/A     59  37  44 NW3       30.90S

$$

FLZ001>006-040000-
WESTERN FLORIDA PANHANDLE

CITY           SKY/WX    TMP DP  RH WIND       PRES   REMARKS
PENSACOLA      PTCLDY    63  36  36 NE7       30.10F
NAS PENSACOLA  MOCLDY    63  40  42 NE6       30.10S
MILTON         LGT RAIN  60  36  40 NE9       30.12F
WHTNG S FIELD  MOCLDY    62  37  39 NE9       30.12F


CITY           SKY/WX    TMP DP  RH WIND       PRES   REMARKS
JAY*             N/A     57  36  44 E7        30.13F
DUKE FIELD     MOCLDY    60  35  38 NE7       30.12S
CRESTVIEW      CLOUDY    60  36  40 NE5       30.14S
VALPARAISO     MOCLDY    62  35  36 NE13      30.12R
DESTIN         PTCLDY    64  39  39 NE8       30.11S

$$

MSZ076-079-040000-
INTERIOR SOUTHEAST MISSISSIPPI

CITY           SKY/WX    TMP DP  RH WIND       PRES   REMARKS
LEAKESVILLE*   NOT AVBL
AGRICOLA*      NOT AVBL

$$

MARINE OBSERVATIONS

STATION/POSITION TIME  TEMP    WIND        PRES    WAVE
                       AIR SEA DIR/SP/G            HT/PER
                 (UTC) (F)     (DEG/KT/KT) (MB)    (FT/S)
PASCAGOULA       2248   63      60/  8/ 10 1018.2F
PETIT BOIS ISLND 2248   63      70/ 21/ 25 1018.8F
GRAND BAY        2145   62      60/  8     1020.0R
KATRINA CUT      2230   62      70/ 16     1018.6R
CEDAR POINT      2230   62      80/ 10     1018.6R
E DAUPHIN ISLAND 2300   63      70/ 14/ 16 1019.1R
MIDDLE BAY LIGHT 2230   63      50/  8     1019.0R
USCG MOBILE BAY  2248   61 61   40/  9/ 14 1020.4R
STATE DOCKS      2248   61 65              1019.7R
MEAHER PARK      2230   63      20/  5     1019.0S
WEEKS BAY        2145   65                   N/A
FORT MORGAN      2248   63      80/ 13/ 18 1018.5R
12 S ORANGE BCH  2250   66 70   90/ 17/ 21 1018.7S   6/ 7
PENSACOLA BAY    2248   63 63   40/  7/ 12 1019.2F
64 S DAUPHIN ISL 2250   72 76  100/ 17/ 23 1016.1S
67 S FORT MORGAN 2230   70     100/ 19     1016.6R

$$

SELECTED LOCATIONS ACROSS THE REGION

CITY           SKY/WX    TMP DP  RH WIND       PRES   REMARKS
NEW ORLEANS    CLOUDY    62  56  80 E14G25    29.99F
GULFPORT       CLOUDY    61  39  44 NE12      30.05F
PASCAGOULA AP  CLOUDY    62  37  39 NE6       30.08F
PASCAGOULA*    NOT AVBL
HATTIESBURG    CLOUDY    54  40  59 E8        30.10F
LAUREL         CLOUDY    52  39  62 E9        30.11F
MERIDIAN       LGT RAIN  48  45  89 NE12      30.16S
JACKSON        LGT RAIN  47  44  90 E12G20    30.08F
MONTGOMERY     CLOUDY    51  37  58 NE7       30.22S
TROY           CLOUDY    55  33  43 NE12      30.19R
ASHFORD*         N/A     57  37  47 NE7       30.15R
DOTHAN         MOCLDY    57  39  51 N8        30.19F
PANAMA CITY    PTCLDY    62  37  39 N7        30.11R

$$




USA.gov is the U.S. government's official web portal to all federal, state and local government web resources and services.